EW4141 Weather Reports


time (UTC)temp
C
wind
direction
speed
KPH
gust
KPH
rain 1hr
cm
rain 24hr
cm
rain mn
cm
humidity
%
barometer
mb
20260504231806 15 181 11.3 29.0 0.00 0.00 0.00 67 1009.6
20260504231705 15 181 12.9 29.0 0.00 0.00 0.00 67 1009.6
20260504231606 15 182 12.9 29.0 0.00 0.00 0.00 67 1009.6
20260504231505 15 182 11.3 29.0 0.00 0.00 0.00 67 1009.6
20260504231405 15 184 11.3 29.0 0.00 0.00 0.00 67 1009.6
20260504231305 15 185 11.3 29.0 0.00 0.00 0.00 66 1009.7
20260504231205 15 184 12.9 29.0 0.00 0.00 0.00 66 1009.6
20260504231105 15 184 12.9 29.0 0.00 0.00 0.00 66 1009.6
20260504231005 15 185 12.9 29.0 0.00 0.00 0.00 66 1009.7
20260504230905 15 187 12.9 29.0 0.00 0.00 0.00 65 1009.7
20260504230805 15 187 12.9 29.0 0.00 0.00 0.00 65 1009.6
20260504230706 15 188 12.9 29.0 0.00 0.00 0.00 65 1009.7
20260504230605 15 188 12.9 29.0 0.00 0.00 0.00 65 1009.7
20260504230111 15 163 9.7 30.6 0.00 0.00 0.00 65 1010.0
20260504230005 15 189 12.9 30.6 0.00 0.00 0.00 64 1009.7
20260504225905 15 188 12.9 30.6 0.00 0.00 0.00 64 1009.7
20260504225805 15 189 14.5 30.6 0.00 0.00 0.00 64 1009.6
20260504225705 15 190 14.5 30.6 0.00 0.00 0.00 64 1009.7
20260504225605 15 190 14.5 30.6 0.00 0.00 0.00 64 1009.7
20260504225505 15 192 14.5 30.6 0.00 0.00 0.00 64 1009.6
20260504225405 15 191 14.5 30.6 0.00 0.00 0.00 64 1009.6
20260504225305 16 192 14.5 30.6 0.00 0.00 0.00 63 1009.7
20260504225205 16 191 12.9 30.6 0.00 0.00 0.00 63 1009.7
20260504225105 16 190 14.5 30.6 0.00 0.00 0.00 63 1009.7
20260504225006 16 189 14.5 30.6 0.00 0.00 0.00 63 1009.7
20260504224905 16 188 12.9 30.6 0.00 0.00 0.00 63 1009.7
20260504224805 16 188 12.9 29.0 0.00 0.00 0.00 63 1009.8
20260504224705 16 186 11.3 29.0 0.00 0.00 0.00 63 1009.8
20260504224605 16 186 11.3 29.0 0.00 0.00 0.00 62 1009.8
20260504224506 16 188 11.3 29.0 0.00 0.00 0.00 62 1009.8
20260504224405 16 189 11.3 24.1 0.00 0.00 0.00 62 1009.8
20260504224305 16 189 11.3 24.1 0.00 0.00 0.00 62 1009.8
20260504224205 16 189 11.3 24.1 0.00 0.00 0.00 62 1009.7
20260504224105 16 191 11.3 25.7 0.00 0.00 0.00 62 1009.7
20260504224005 16 192 11.3 25.7 0.00 0.00 0.00 62 1009.8
20260504223905 16 195 9.7 25.7 0.00 0.00 0.00 62 1009.8
20260504223305 16 196 11.3 25.7 0.00 0.00 0.00 62 1009.8
20260504223205 16 198 9.7 25.7 0.00 0.00 0.00 61 1009.8
20260504223111 16 193 8.0 20.9 0.00 0.00 0.00 61 1010.0
20260504223105 16 196 11.3 20.9 0.00 0.00 0.00 61 1009.8
20260504223006 16 196 9.7 25.7 0.00 0.00 0.00 61 1009.8
20260504222905 16 195 9.7 25.7 0.00 0.00 0.00 61 1009.8
20260504222805 16 195 9.7 25.7 0.00 0.00 0.00 61 1009.8
20260504222704 16 196 8.0 25.7 0.00 0.00 0.00 61 1009.8
20260504222605 16 197 8.0 25.7 0.00 0.00 0.00 61 1009.9
20260504222505 16 198 8.0 25.7 0.00 0.00 0.00 60 1009.9
20260504222405 16 199 8.0 25.7 0.00 0.00 0.00 60 1009.9
20260504222305 16 200 8.0 25.7 0.00 0.00 0.00 60 1009.9
20260504222206 16 199 9.7 25.7 0.00 0.00 0.00 60 1009.9
20260504221624 16 201 8.0 32.2 0.00 0.00 0.00 60 1010.1
20260504221605 16 196 11.3 30.6 0.00 0.00 0.00 60 1010.0
20260504221505 16 194 12.9 30.6 0.00 0.00 0.00 59 1009.9
20260504221406 17 192 12.9 30.6 0.00 0.00 0.00 59 1010.0
20260504221305 17 193 11.3 30.6 0.00 0.00 0.00 59 1010.0
20260504221205 17 193 12.9 30.6 0.00 0.00 0.00 59 1009.9
20260504221104 17 191 12.9 29.0 0.00 0.00 0.00 59 1010.0
20260504221005 17 192 12.9 29.0 0.00 0.00 0.00 58 1010.0
20260504220905 17 192 11.3 29.0 0.00 0.00 0.00 58 1010.1
20260504220805 17 190 11.3 29.0 0.00 0.00 0.00 58 1010.0
20260504220705 17 192 11.3 29.0 0.00 0.00 0.00 58 1010.0
20260504220606 17 191 11.3 29.0 0.00 0.00 0.00 58 1010.0
20260504220505 17 194 11.3 25.7 0.00 0.00 0.00 58 1010.0
20260504220405 17 195 11.3 30.6 0.00 0.00 0.00 58 1010.0
20260504220306 17 193 11.3 30.6 0.00 0.00 0.00 58 1010.0
20260504220205 17 192 11.3 30.6 0.00 0.00 0.00 58 1010.1
20260504220110 17 189 9.7 30.6 0.00 0.00 0.00 57 1010.3
20260504220105 17 191 11.3 30.6 0.00 0.00 0.00 57 1010.1
20260504220006 17 190 9.7 30.6 0.00 0.00 0.00 57 1010.1
20260504215905 17 190 11.3 30.6 0.00 0.00 0.00 57 1010.1
20260504215805 17 190 11.3 30.6 0.00 0.00 0.00 57 1010.1
20260504215705 17 192 11.3 30.6 0.00 0.00 0.00 57 1010.1
20260504215605 17 192 11.3 30.6 0.00 0.00 0.00 57 1010.1
20260504215505 17 192 11.3 30.6 0.00 0.00 0.00 56 1010.2
20260504215405 17 192 11.3 25.7 0.00 0.00 0.00 56 1010.1
20260504215305 17 193 11.3 25.7 0.00 0.00 0.00 56 1010.1
20260504215205 17 191 11.3 25.7 0.00 0.00 0.00 56 1010.1
20260504215105 17 192 11.3 29.0 0.00 0.00 0.00 55 1010.1
20260504215005 17 192 11.3 29.0 0.00 0.00 0.00 55 1010.1
20260504214906 17 191 11.3 29.0 0.00 0.00 0.00 54 1010.1
20260504214805 17 191 11.3 30.6 0.00 0.00 0.00 55 1010.1
20260504214705 17 190 11.3 30.6 0.00 0.00 0.00 55 1010.1
20260504214621 17 178 11.3 30.6 0.00 0.00 0.00 54 1010.4
20260504214605 17 192 11.3 30.6 0.00 0.00 0.00 55 1010.1
20260504214505 17 190 11.3 30.6 0.00 0.00 0.00 55 1010.2
20260504214405 17 191 11.3 30.6 0.00 0.00 0.00 55 1010.1
20260504213805 18 200 9.7 29.0 0.00 0.00 0.00 55 1010.1
20260504213705 18 198 9.7 29.0 0.00 0.00 0.00 55 1010.2
20260504213605 18 197 9.7 29.0 0.00 0.00 0.00 55 1010.1
20260504213505 18 200 9.7 29.0 0.00 0.00 0.00 55 1010.1
20260504213405 18 200 8.0 29.0 0.00 0.00 0.00 55 1010.2
20260504213305 18 200 8.0 29.0 0.00 0.00 0.00 55 1010.1
20260504213205 18 202 8.0 29.0 0.00 0.00 0.00 55 1010.0
20260504213108 17 219 4.8 22.5 0.00 0.00 0.00 55 1010.3
20260504213105 18 203 8.0 20.9 0.00 0.00 0.00 55 1010.1
20260504213005 18 198 8.0 20.9 0.00 0.00 0.00 55 1010.2
20260504212906 18 197 8.0 22.5 0.00 0.00 0.00 55 1010.1
20260504212805 18 196 8.0 22.5 0.00 0.00 0.00 55 1010.1
20260504212705 18 196 8.0 22.5 0.00 0.00 0.00 55 1010.1
20260504212605 18 194 8.0 22.5 0.00 0.00 0.00 55 1010.1
20260504212505 18 193 8.0 22.5 0.00 0.00 0.00 55 1010.1
20260504212405 18 190 8.0 22.5 0.00 0.00 0.00 55 1010.1
20260504212305 18 190 8.0 22.5 0.00 0.00 0.00 55 1010.0
20260504212205 18 188 8.0 22.5 0.00 0.00 0.00 55 1010.1
20260504212105 18 186 8.0 22.5 0.00 0.00 0.00 55 1010.1
20260504212005 18 186 8.0 24.1 0.00 0.00 0.00 55 1010.1
20260504211905 18 187 8.0 25.7 0.00 0.00 0.00 55 1010.1
20260504211805 18 189 8.0 25.7 0.00 0.00 0.00 55 1010.1
20260504211705 18 188 8.0 25.7 0.00 0.00 0.00 55 1010.1
20260504211618 17 171 8.0 25.7 0.00 0.00 0.00 54 1010.3
20260504211605 18 189 9.7 25.7 0.00 0.00 0.00 55 1010.1
20260504211504 18 194 9.7 25.7 0.00 0.00 0.00 55 1010.0
20260504211405 18 198 9.7 25.7 0.00 0.00 0.00 55 1010.1
20260504211305 18 196 11.3 25.7 0.00 0.00 0.00 55 1010.1
20260504211205 18 197 9.7 25.7 0.00 0.00 0.00 55 1010.1
20260504211105 18 198 9.7 25.7 0.00 0.00 0.00 55 1010.1
20260504211006 18 202 9.7 25.7 0.00 0.00 0.00 54 1010.1
20260504210905 18 204 9.7 25.7 0.00 0.00 0.00 54 1010.1
20260504210805 18 205 11.3 25.7 0.00 0.00 0.00 54 1010.1
20260504210706 18 205 11.3 25.7 0.00 0.00 0.00 54 1010.1
20260504210605 18 206 11.3 29.0 0.00 0.00 0.00 54 1010.1
20260504210505 18 202 11.3 29.0 0.00 0.00 0.00 54 1010.1
20260504210405 18 200 11.3 29.0 0.00 0.00 0.00 54 1010.1
20260504210305 18 204 11.3 29.0 0.00 0.00 0.00 54 1010.1
20260504210205 18 204 11.3 29.0 0.00 0.00 0.00 53 1010.1
20260504210107 18 219 8.0 29.0 0.00 0.00 0.00 53 1010.3
20260504210005 18 203 12.9 29.0 0.00 0.00 0.00 53 1010.1
20260504205905 18 202 12.9 29.0 0.00 0.00 0.00 53 1010.2
20260504205805 18 201 12.9 29.0 0.00 0.00 0.00 52 1010.1
20260504205705 18 202 12.9 29.0 0.00 0.00 0.00 52 1010.1
20260504205605 18 203 12.9 27.4 0.00 0.00 0.00 52 1010.2
20260504205505 18 203 12.9 27.4 0.00 0.00 0.00 53 1010.1
20260504205405 18 203 11.3 27.4 0.00 0.00 0.00 52 1010.1
20260504205305 18 201 11.3 27.4 0.00 0.00 0.00 52 1010.1
20260504205205 18 200 12.9 27.4 0.00 0.00 0.00 52 1010.1
20260504205105 18 200 11.3 27.4 0.00 0.00 0.00 52 1010.1
20260504205005 18 200 12.9 27.4 0.00 0.00 0.00 52 1010.0
20260504204905 18 201 12.9 27.4 0.00 0.00 0.00 53 1010.1
20260504204805 18 202 12.9 27.4 0.00 0.00 0.00 52 1010.0
20260504204705 18 198 12.9 27.4 0.00 0.00 0.00 51 1010.0
20260504204632 18 141 12.9 27.4 0.00 0.00 0.00 51 1010.4
20260504204605 18 195 12.9 27.4 0.00 0.00 0.00 51 1010.0
20260504204505 18 195 11.3 27.4 0.00 0.00 0.00 52 1010.0
20260504204405 18 196 11.3 22.5 0.00 0.00 0.00 52 1010.0
20260504204306 18 195 11.3 22.5 0.00 0.00 0.00 52 1010.1
20260504204205 18 195 11.3 22.5 0.00 0.00 0.00 52 1010.0
20260504204105 18 196 11.3 20.9 0.00 0.00 0.00 52 1010.0
20260504204005 18 196 9.7 20.9 0.00 0.00 0.00 52 1010.0
20260504203905 18 197 11.3 20.9 0.00 0.00 0.00 52 1010.0
20260504203805 18 201 11.3 25.7 0.00 0.00 0.00 53 1010.0
20260504203705 18 206 9.7 25.7 0.00 0.00 0.00 53 1010.0
20260504203605 18 213 9.7 25.7 0.00 0.00 0.00 53 1010.0
20260504203505 18 213 9.7 25.7 0.00 0.00 0.00 53 1010.0
20260504203405 18 216 9.7 25.7 0.00 0.00 0.00 53 1010.0
20260504203305 18 218 11.3 25.7 0.00 0.00 0.00 52 1010.0
20260504203205 18 221 9.7 29.0 0.00 0.00 0.00 52 1010.0
20260504203137 18 224 8.0 27.4 0.00 0.00 0.00 52 1010.3
20260504203105 18 224 11.3 29.0 0.00 0.00 0.00 52 1009.9
20260504203005 18 224 11.3 29.0 0.00 0.00 0.00 51 1010.0
20260504202905 18 225 9.7 29.0 0.00 0.00 0.00 51 1009.9
20260504202805 18 224 9.7 29.0 0.00 0.00 0.00 51 1010.0
20260504202705 18 223 11.3 29.0 0.00 0.00 0.00 51 1009.9
20260504202605 18 223 11.3 29.0 0.00 0.00 0.00 51 1009.9
20260504202505 18 222 11.3 29.0 0.00 0.00 0.00 51 1010.0
20260504202405 18 220 9.7 29.0 0.00 0.00 0.00 51 1009.9
20260504202305 18 221 11.3 29.0 0.00 0.00 0.00 50 1009.8
20260504202205 18 216 11.3 29.0 0.00 0.00 0.00 51 1009.9
20260504202105 18 217 11.3 30.6 0.00 0.00 0.00 50 1009.9
20260504202005 18 218 11.3 30.6 0.00 0.00 0.00 50 1009.9
20260504201905 18 217 11.3 30.6 0.00 0.00 0.00 50 1009.9
20260504201805 18 212 11.3 30.6 0.00 0.00 0.00 50 1009.9
20260504201705 18 214 11.3 30.6 0.00 0.00 0.00 51 1009.9
20260504201613 18 134 6.4 29.0 0.00 0.00 0.00 50 1010.2
20260504201605 18 212 11.3 30.6 0.00 0.00 0.00 50 1010.0
20260504201505 18 214 11.3 30.6 0.00 0.00 0.00 49 1010.0
20260504201405 19 213 11.3 30.6 0.00 0.00 0.00 49 1009.9
20260504201305 19 212 11.3 30.6 0.00 0.00 0.00 49 1009.9
20260504201205 19 212 11.3 30.6 0.00 0.00 0.00 50 1010.0
20260504201105 19 211 11.3 29.0 0.00 0.00 0.00 50 1010.1
20260504201005 19 209 11.3 24.1 0.00 0.00 0.00 50 1010.0
20260504200905 19 211 11.3 24.1 0.00 0.00 0.00 50 1010.0
20260504200805 19 218 11.3 25.7 0.00 0.00 0.00 50 1010.1
20260504200705 19 214 11.3 25.7 0.00 0.00 0.00 50 1010.1
20260504200605 19 213 11.3 25.7 0.00 0.00 0.00 50 1010.1
20260504200505 19 215 11.3 25.7 0.00 0.00 0.00 50 1010.1
20260504200405 19 216 12.9 29.0 0.00 0.00 0.00 50 1010.1
20260504200305 19 216 12.9 29.0 0.00 0.00 0.00 50 1010.1
20260504200205 19 216 12.9 30.6 0.00 0.00 0.00 50 1010.2
20260504200120 18 255 8.0 29.0 0.00 0.00 0.00 50 1010.4
20260504200105 19 215 12.9 30.6 0.00 0.00 0.00 50 1010.2
20260504200005 19 214 14.5 30.6 0.00 0.00 0.00 49 1010.2
20260504195905 19 217 14.5 35.4 0.00 0.00 0.00 49 1010.2
20260504195805 19 214 14.5 35.4 0.00 0.00 0.00 49 1010.2
20260504195705 19 218 14.5 35.4 0.00 0.00 0.00 48 1010.2
20260504195605 19 220 16.1 35.4 0.00 0.00 0.00 48 1010.3
20260504195505 19 220 14.5 35.4 0.00 0.00 0.00 47 1010.3
20260504195406 19 220 16.1 35.4 0.00 0.00 0.00 47 1010.2
20260504195305 19 220 14.5 43.5 0.00 0.00 0.00 47 1010.3
20260504195205 19 221 16.1 43.5 0.00 0.00 0.00 47 1010.2
20260504195105 19 219 16.1 43.5 0.00 0.00 0.00 47 1010.3
20260504195005 19 219 14.5 43.5 0.00 0.00 0.00 48 1010.4
20260504194905 19 217 14.5 43.5 0.00 0.00 0.00 47 1010.3
20260504194805 19 215 14.5 43.5 0.00 0.00 0.00 47 1010.3
20260504194705 19 213 14.5 43.5 0.00 0.00 0.00 47 1010.2
20260504194610 18 236 14.5 46.7 0.00 0.00 0.00 47 1010.5
20260504194605 19 208 14.5 43.5 0.00 0.00 0.00 47 1010.2
20260504194505 19 206 14.5 43.5 0.00 0.00 0.00 47 1010.3
20260504194405 19 206 12.9 43.5 0.00 0.00 0.00 47 1010.2
20260504194305 19 206 12.9 33.8 0.00 0.00 0.00 48 1010.3
20260504194205 19 207 12.9 33.8 0.00 0.00 0.00 48 1010.1
20260504194105 19 209 14.5 33.8 0.00 0.00 0.00 48 1010.1
20260504194005 19 208 14.5 33.8 0.00 0.00 0.00 47 1010.2
20260504193905 19 206 14.5 33.8 0.00 0.00 0.00 47 1010.2
20260504193805 19 207 14.5 33.8 0.00 0.00 0.00 47 1010.2
20260504193705 19 207 14.5 33.8 0.00 0.00 0.00 47 1010.3
20260504193605 19 207 12.9 33.8 0.00 0.00 0.00 46 1010.3
20260504193505 19 207 14.5 30.6 0.00 0.00 0.00 46 1010.2
20260504193405 19 205 14.5 30.6 0.00 0.00 0.00 47 1010.2
20260504193305 19 202 14.5 30.6 0.00 0.00 0.00 47 1010.2
20260504193205 19 202 12.9 30.6 0.00 0.00 0.00 47 1010.3
20260504193118 19 234 14.5 27.4 0.00 0.00 0.00 47 1010.5
20260504193105 19 202 12.9 29.0 0.00 0.00 0.00 47 1010.3
20260504193005 19 206 14.5 33.8 0.00 0.00 0.00 47 1010.3
20260504192905 19 207 14.5 33.8 0.00 0.00 0.00 46 1010.3
20260504192805 19 208 14.5 33.8 0.00 0.00 0.00 47 1010.2
20260504192705 19 208 14.5 33.8 0.00 0.00 0.00 47 1010.2
20260504192605 19 209 14.5 33.8 0.00 0.00 0.00 45 1010.2
20260504192505 19 209 14.5 33.8 0.00 0.00 0.00 45 1010.3
20260504192405 19 209 14.5 33.8 0.00 0.00 0.00 45 1010.3
20260504192305 19 211 14.5 33.8 0.00 0.00 0.00 45 1010.2
20260504192205 19 211 16.1 33.8 0.00 0.00 0.00 45 1010.3
20260504192105 20 211 14.5 33.8 0.00 0.00 0.00 46 1010.3
20260504192005 20 206 14.5 32.2 0.00 0.00 0.00 45 1010.3
20260504191905 20 205 12.9 32.2 0.00 0.00 0.00 45 1010.3
20260504191806 20 205 12.9 32.2 0.00 0.00 0.00 46 1010.4
20260504191705 20 207 11.3 38.6 0.00 0.00 0.00 46 1010.3
20260504191610 19 205 12.9 35.4 0.00 0.00 0.00 46 1010.6
20260504191605 20 208 11.3 38.6 0.00 0.00 0.00 46 1010.2
20260504191505 20 205 11.3 38.6 0.00 0.00 0.00 46 1010.4
20260504191405 20 207 11.3 38.6 0.00 0.00 0.00 45 1010.3
20260504191305 20 208 11.3 38.6 0.00 0.00 0.00 46 1010.3
20260504191205 20 210 11.3 38.6 0.00 0.00 0.00 45 1010.4
20260504191105 20 208 11.3 38.6 0.00 0.00 0.00 46 1010.4
20260504191005 20 208 12.9 38.6 0.00 0.00 0.00 46 1010.4
20260504190905 20 209 12.9 38.6 0.00 0.00 0.00 46 1010.4
20260504190805 20 208 12.9 38.6 0.00 0.00 0.00 46 1010.4
20260504190705 20 206 14.5 45.1 0.00 0.00 0.00 45 1010.3
20260504190604 20 208 14.5 45.1 0.00 0.00 0.00 44 1010.3
20260504190505 20 209 14.5 45.1 0.00 0.00 0.00 45 1010.4
20260504190405 20 207 16.1 45.1 0.00 0.00 0.00 45 1010.4
20260504190305 20 204 14.5 45.1 0.00 0.00 0.00 46 1010.3
20260504190205 20 201 16.1 45.1 0.00 0.00 0.00 46 1010.4
20260504190116 19 94 12.9 43.5 0.00 0.00 0.00 46 1010.6
20260504190105 20 204 16.1 45.1 0.00 0.00 0.00 46 1010.4
20260504190005 20 205 16.1 45.1 0.00 0.00 0.00 45 1010.5
20260504185905 20 207 14.5 45.1 0.00 0.00 0.00 46 1010.5
20260504185805 20 207 14.5 45.1 0.00 0.00 0.00 44 1010.5
20260504185705 20 211 14.5 33.8 0.00 0.00 0.00 45 1010.5
20260504185605 20 211 14.5 33.8 0.00 0.00 0.00 47 1010.6
20260504185505 20 214 12.9 33.8 0.00 0.00 0.00 47 1010.5
20260504185405 20 215 12.9 33.8 0.00 0.00 0.00 46 1010.5
20260504185305 20 216 12.9 30.6 0.00 0.00 0.00 47 1010.6
20260504185204 20 216 12.9 30.6 0.00 0.00 0.00 46 1010.7
20260504185105 20 215 11.3 30.6 0.00 0.00 0.00 48 1010.5
20260504185005 20 215 11.3 27.4 0.00 0.00 0.00 47 1010.6
20260504184905 20 207 11.3 27.4 0.00 0.00 0.00 47 1010.6
20260504184805 20 206 11.3 27.4 0.00 0.00 0.00 47 1010.5
20260504184705 20 199 11.3 27.4 0.00 0.00 0.00 48 1010.5
20260504184609 20 227 11.3 27.4 0.00 0.00 0.00 48 1010.8
20260504184605 20 195 11.3 27.4 0.00 0.00 0.00 48 1010.6
20260504184505 20 193 11.3 25.7 0.00 0.00 0.00 47 1010.6
20260504184405 20 195 9.7 29.0 0.00 0.00 0.00 48 1010.6
20260504184304 20 198 9.7 29.0 0.00 0.00 0.00 47 1010.6
20260504184205 20 198 9.7 29.0 0.00 0.00 0.00 49 1010.6
20260504184105 20 196 9.7 29.0 0.00 0.00 0.00 49 1010.6
20260504184005 20 201 9.7 29.0 0.00 0.00 0.00 49 1010.6
20260504183905 20 208 8.0 29.0 0.00 0.00 0.00 49 1010.7
20260504183806 20 210 8.0 29.0 0.00 0.00 0.00 48 1010.7
20260504183705 20 212 8.0 29.0 0.00 0.00 0.00 48 1010.7
20260504183605 20 217 8.0 29.0 0.00 0.00 0.00 49 1010.8
20260504183505 20 218 8.0 29.0 0.00 0.00 0.00 49 1010.7
20260504183404 20 218 9.7 25.7 0.00 0.00 0.00 48 1010.7
20260504183306 20 214 9.7 25.7 0.00 0.00 0.00 48 1010.8
20260504183205 20 216 9.7 25.7 0.00 0.00 0.00 49 1010.8
20260504183117 19 209 9.7 32.2 0.00 0.00 0.00 48 1011.1
20260504183105 20 214 9.7 24.1 0.00 0.00 0.00 48 1010.9
20260504183005 20 215 9.7 24.1 0.00 0.00 0.00 47 1010.8
20260504182905 20 218 9.7 24.1 0.00 0.00 0.00 47 1010.8
20260504182805 20 220 9.7 24.1 0.00 0.00 0.00 47 1010.8
20260504182705 20 220 9.7 24.1 0.00 0.00 0.00 48 1010.8
20260504182605 20 220 9.7 24.1 0.00 0.00 0.00 47 1010.7
20260504182505 20 217 9.7 24.1 0.00 0.00 0.00 48 1010.8
20260504182405 20 218 11.3 20.9 0.00 0.00 0.00 48 1010.8
20260504182305 20 220 11.3 29.0 0.00 0.00 0.00 49 1010.8
20260504182205 20 220 9.7 29.0 0.00 0.00 0.00 48 1010.8
20260504182105 20 225 9.7 29.0 0.00 0.00 0.00 48 1010.8
20260504182005 20 223 9.7 29.0 0.00 0.00 0.00 48 1010.8
20260504181904 20 219 9.7 29.0 0.00 0.00 0.00 50 1010.9
20260504181805 20 217 9.7 29.0 0.00 0.00 0.00 49 1010.8
20260504181705 20 216 9.7 29.0 0.00 0.00 0.00 49 1010.8
20260504181608 19 206 12.9 30.6 0.00 0.00 0.00 50 1011.2
20260504181605 20 214 9.7 29.0 0.00 0.00 0.00 48 1010.9
20260504181505 20 216 8.0 29.0 0.00 0.00 0.00 50 1010.9
20260504181405 20 210 8.0 29.0 0.00 0.00 0.00 50 1010.8
20260504181305 20 211 8.0 22.5 0.00 0.00 0.00 50 1010.9
20260504181205 19 213 9.7 33.8 0.00 0.00 0.00 50 1010.9
20260504181105 19 211 9.7 33.8 0.00 0.00 0.00 50 1010.9
20260504181005 19 212 11.3 33.8 0.00 0.00 0.00 50 1010.9
20260504180905 19 211 11.3 33.8 0.00 0.00 0.00 50 1010.9
20260504180804 19 210 11.3 33.8 0.00 0.00 0.00 49 1010.9
20260504180704 19 207 11.3 33.8 0.00 0.00 0.00 48 1010.9
20260504180605 19 210 12.9 33.8 0.00 0.00 0.00 48 1010.9
20260504180505 19 214 14.5 33.8 0.00 0.00 0.00 48 1010.9
20260504180405 19 219 14.5 33.8 0.00 0.00 0.00 47 1011.0
20260504180305 19 218 12.9 33.8 0.00 0.00 0.00 47 1011.0
20260504180205 19 217 12.9 33.8 0.00 0.00 0.00 48 1010.9
20260504180128 19 199 14.5 32.2 0.00 0.00 0.00 46 1011.1
20260504180105 19 219 12.9 33.8 0.00 0.00 0.00 46 1011.0
20260504180005 19 220 11.3 33.8 0.00 0.00 0.00 47 1011.0
20260504175905 19 222 9.7 24.1 0.00 0.00 0.00 48 1011.1
20260504175804 19 222 9.7 24.1 0.00 0.00 0.00 47 1011.0
20260504175704 19 225 9.7 24.1 0.00 0.00 0.00 46 1011.1
20260504175605 19 223 9.7 24.1 0.00 0.00 0.00 47 1011.0
20260504175505 19 215 11.3 30.6 0.00 0.00 0.00 48 1011.1
20260504175405 19 210 11.3 30.6 0.00 0.00 0.00 48 1011.1
20260504175305 19 207 11.3 30.6 0.00 0.00 0.00 48 1011.1
20260504175205 19 205 11.3 30.6 0.00 0.00 0.00 48 1011.1
20260504175105 19 203 11.3 30.6 0.00 0.00 0.00 48 1011.1
20260504175005 19 201 12.9 30.6 0.00 0.00 0.00 48 1011.2
20260504174904 19 202 12.9 30.6 0.00 0.00 0.00 48 1011.2
20260504174805 19 203 12.9 30.6 0.00 0.00 0.00 47 1011.2
20260504174705 19 204 12.9 30.6 0.00 0.00 0.00 46 1011.2
20260504174606 19 225 19.3 29.0 0.00 0.00 0.00 46 1011.3
20260504174506 19 202 9.7 24.1 0.00 0.00 0.00 47 1011.2
20260504174405 19 201 9.7 27.4 0.00 0.00 0.00 47 1011.2
20260504174305 19 201 9.7 27.4 0.00 0.00 0.00 48 1011.2
20260504174204 19 203 8.0 27.4 0.00 0.00 0.00 48 1011.2
20260504174105 19 206 8.0 27.4 0.00 0.00 0.00 48 1011.1
20260504174005 19 207 8.0 27.4 0.00 0.00 0.00 48 1011.1
20260504173405 19 225 9.7 27.4 0.00 0.00 0.00 48 1011.1
20260504173305 19 230 9.7 27.4 0.00 0.00 0.00 48 1011.1
20260504173205 19 227 9.7 27.4 0.00 0.00 0.00 47 1011.2
20260504173114 18 207 8.0 27.4 0.00 0.00 0.00 46 1011.4
20260504173105 19 228 11.3 35.4 0.00 0.00 0.00 47 1011.1
20260504173005 19 229 11.3 35.4 0.00 0.00 0.00 47 1011.1
20260504172905 19 224 12.9 35.4 0.00 0.00 0.00 47 1011.1
20260504172805 19 225 12.9 35.4 0.00 0.00 0.00 46 1011.1
20260504172705 19 226 12.9 35.4 0.00 0.00 0.00 46 1011.1
20260504172605 19 222 12.9 35.4 0.00 0.00 0.00 46 1011.1
20260504172505 19 220 12.9 35.4 0.00 0.00 0.00 46 1011.1
20260504172404 19 216 11.3 35.4 0.00 0.00 0.00 46 1011.2
20260504172305 19 216 11.3 35.4 0.00 0.00 0.00 46 1011.2
20260504172205 19 218 11.3 35.4 0.00 0.00 0.00 45 1011.2
20260504172105 19 217 11.3 35.4 0.00 0.00 0.00 46 1011.2
20260504172005 19 214 11.3 35.4 0.00 0.00 0.00 45 1011.2
20260504171904 19 217 11.3 35.4 0.00 0.00 0.00 46 1011.3
20260504171805 19 222 11.3 35.4 0.00 0.00 0.00 46 1011.2
20260504171705 19 222 12.9 33.8 0.00 0.00 0.00 47 1011.2
20260504171615 18 257 9.7 33.8 0.00 0.00 0.00 46 1011.4
20260504171606 19 227 12.9 33.8 0.00 0.00 0.00 46 1011.1
20260504171505 19 230 12.9 33.8 0.00 0.00 0.00 45 1011.1
20260504171405 19 231 12.9 33.8 0.00 0.00 0.00 45 1011.2
20260504171305 19 230 14.5 33.8 0.00 0.00 0.00 45 1011.2
20260504171205 19 228 14.5 33.8 0.00 0.00 0.00 45 1011.3
20260504171105 19 231 14.5 33.8 0.00 0.00 0.00 45 1011.3
20260504171005 19 234 16.1 33.8 0.00 0.00 0.00 44 1011.3
20260504170905 19 232 14.5 38.6 0.00 0.00 0.00 44 1011.3
20260504170304 19 210 12.9 38.6 0.00 0.00 0.00 41 1011.3
20260504170205 19 207 12.9 38.6 0.00 0.00 0.00 43 1011.3
20260504170111 18 229 14.5 38.6 0.00 0.00 0.00 44 1011.6
20260504170105 19 202 12.9 38.6 0.00 0.00 0.00 45 1011.3
20260504160405 18 247 16.1 45.1 0.00 0.00 0.00 38 1011.8
20260504160305 18 247 17.7 45.1 0.00 0.00 0.00 37 1011.9
20260504160205 18 245 17.7 45.1 0.00 0.00 0.00 37 1011.9
20260504160112 17 254 17.7 41.8 0.00 0.00 0.00 38 1012.1
20260504160105 18 244 17.7 45.1 0.00 0.00 0.00 38 1011.9
20260504151105 17 249 12.9 35.4 0.00 0.00 0.00 43 1012.4
20260504151005 17 251 14.5 35.4 0.00 0.00 0.00 42 1012.4
20260504150905 17 249 14.5 35.4 0.00 0.00 0.00 41 1012.4
20260504150804 17 251 14.5 35.4 0.00 0.00 0.00 42 1012.4
20260504150705 17 252 14.5 35.4 0.00 0.00 0.00 42 1012.4
20260504150605 17 252 14.5 35.4 0.00 0.00 0.00 42 1012.3
20260504150504 17 251 14.5 35.4 0.00 0.00 0.00 42 1012.3
20260504150405 17 248 14.5 32.2 0.00 0.00 0.00 44 1012.4
20260504150305 17 246 16.1 40.2 0.00 0.00 0.00 43 1012.3
20260504150205 17 245 16.1 40.2 0.00 0.00 0.00 43 1012.4
20260504150105 17 246 16.1 40.2 0.00 0.00 0.00 43 1012.4
20260504141305 16 243 12.9 33.8 0.00 0.00 0.00 46 1012.6
20260504141205 16 244 12.9 33.8 0.00 0.00 0.00 47 1012.6
20260504141105 16 245 14.5 46.7 0.00 0.00 0.00 45 1012.6
20260504141005 16 247 14.5 46.7 0.00 0.00 0.00 45 1012.6
20260504140905 16 246 14.5 46.7 0.00 0.00 0.00 45 1012.6
20260504140805 16 247 14.5 46.7 0.00 0.00 0.00 44 1012.6
20260504140705 16 246 14.5 46.7 0.00 0.00 0.00 45 1012.6
20260504140605 16 244 12.9 46.7 0.00 0.00 0.00 45 1012.6
20260504140505 16 244 14.5 46.7 0.00 0.00 0.00 45 1012.6
20260504140405 16 244 14.5 46.7 0.00 0.00 0.00 45 1012.6
20260504140305 16 243 14.5 46.7 0.00 0.00 0.00 45 1012.6
20260504140205 16 242 14.5 46.7 0.00 0.00 0.00 45 1012.6
20260504140105 16 240 14.5 35.4 0.00 0.00 0.00 47 1012.6
20260504130805 14 238 9.7 29.0 0.00 0.00 0.00 51 1013.1
20260504130705 14 236 9.7 29.0 0.00 0.00 0.00 51 1013.1
20260504130605 14 236 9.7 25.7 0.00 0.00 0.00 51 1013.1
20260504130505 14 234 11.3 25.7 0.00 0.00 0.00 51 1013.1
20260504130404 14 236 11.3 25.7 0.00 0.00 0.00 51 1013.2
20260504130305 14 233 12.9 27.4 0.00 0.00 0.00 51 1013.1
20260504130205 14 232 12.9 27.4 0.00 0.00 0.00 50 1013.1
20260504130120 14 212 8.0 27.4 0.00 0.00 0.00 50 1013.4
20260504130104 14 233 12.9 27.4 0.00 0.00 0.00 50 1013.1
20260504120304 12 212 11.3 30.6 0.00 0.00 0.00 57 1013.2
20260504120205 12 212 11.3 30.6 0.00 0.00 0.00 58 1013.1
20260504120114 12 245 11.3 29.0 0.00 0.00 0.00 57 1013.4
20260504120105 12 210 9.7 30.6 0.00 0.00 0.00 58 1013.2
20260504110705 10 191 11.3 29.0 0.00 0.00 0.00 64 1013.2
20260504110605 10 194 11.3 29.0 0.00 0.00 0.00 64 1013.3
20260504110505 10 195 11.3 29.0 0.00 0.00 0.00 64 1013.2
20260504110404 10 197 11.3 29.0 0.00 0.00 0.00 63 1013.2
20260504110305 10 199 9.7 29.0 0.00 0.00 0.00 64 1013.3
20260504110205 10 199 9.7 29.0 0.00 0.00 0.00 64 1013.2
20260504110114 9 146 11.3 29.0 0.00 0.00 0.00 64 1013.5
20260504110104 10 198 9.7 29.0 0.00 0.00 0.00 64 1013.3
20260504100605 8 187 14.5 24.1 0.00 0.00 0.00 63 1012.9
20260504100504 8 187 14.5 24.1 0.00 0.00 0.00 63 1012.9
20260504100404 8 187 14.5 24.1 0.00 0.00 0.00 63 1012.9
20260504100305 8 187 14.5 24.1 0.00 0.00 0.00 63 1012.9
20260504100204 8 187 14.5 24.1 0.00 0.00 0.00 62 1012.9
20260504100108 8 174 11.3 22.5 0.00 0.00 0.00 62 1013.1
20260504100105 8 188 14.5 22.5 0.00 0.00 0.00 63 1012.9
20260504090105 9 197 11.3 19.3 0.00 0.00 0.00 61 1012.6
20260504081704 10 219 11.3 27.4 0.00 0.00 0.00 58 1012.4
20260504081613 10 235 11.3 25.7 0.00 0.00 0.00 58 1012.7
20260504081604 10 218 11.3 27.4 0.00 0.00 0.00 58 1012.4
20260504081505 10 217 11.3 27.4 0.00 0.00 0.00 58 1012.5
20260504081404 10 218 11.3 27.4 0.00 0.00 0.00 58 1012.4
20260504081304 10 219 9.7 24.1 0.00 0.00 0.00 58 1012.4
20260504080704 10 224 11.3 20.9 0.00 0.00 0.00 57 1012.4
20260504080605 10 227 11.3 29.0 0.00 0.00 0.00 56 1012.4
20260504080505 10 230 12.9 30.6 0.00 0.00 0.00 56 1012.4
20260504080404 10 232 12.9 30.6 0.00 0.00 0.00 56 1012.4
20260504080305 10 236 14.5 30.6 0.00 0.00 0.00 56 1012.4
20260504080205 10 238 14.5 33.8 0.00 0.00 0.00 56 1012.3
20260504080119 10 213 12.9 30.6 0.00 0.00 0.00 57 1012.6
20260504080104 10 239 14.5 33.8 0.00 0.00 0.00 56 1012.4
20260504070404 8 196 14.5 32.2 0.00 0.00 0.00 62 1011.8
20260504070305 8 194 14.5 32.2 0.00 0.00 0.00 63 1011.7
20260504070204 8 192 14.5 24.1 0.00 0.00 0.00 63 1011.8
20260504070115 8 175 12.9 24.1 0.00 0.00 0.00 63 1012.1
20260504070105 8 194 14.5 24.1 0.00 0.00 0.00 63 1011.8
20260504060205 9 204 14.5 25.7 0.00 0.00 0.00 63 1011.8
20260504060113 8 192 14.5 25.7 0.00 0.00 0.00 63 1012.0
20260504060105 9 206 14.5 25.7 0.00 0.00 0.00 63 1011.7
20260504050115 -17 213 11.3 20.9 0.00 0.00 0.00 1012.0
20260504045904 9 203 12.9 24.1 0.00 0.00 0.00 57 1011.7
20260504045805 9 201 12.9 24.1 0.00 0.00 0.00 57 1011.7
20260504045704 9 201 12.9 24.1 0.00 0.00 0.00 57 1011.7
20260504045605 9 200 12.9 24.1 0.00 0.00 0.00 57 1011.8
20260504045504 9 201 12.9 24.1 0.00 0.00 0.00 57 1011.8
20260504045405 9 200 12.9 24.1 0.00 0.00 0.00 56 1011.8
20260504045305 9 199 12.9 24.1 0.00 0.00 0.00 56 1011.8
20260504045204 9 198 12.9 24.1 0.00 0.00 0.00 54 1011.8
20260504045105 9 196 12.9 20.9 0.00 0.00 0.00 54 1011.8
20260504045004 9 194 12.9 20.9 0.00 0.00 0.00 54 1011.7
20260504044905 9 191 12.9 20.9 0.00 0.00 0.00 54 1011.8
20260504044805 9 191 12.9 20.9 0.00 0.00 0.00 53 1011.8
20260504044705 9 191 12.9 20.9 0.00 0.00 0.00 53 1011.8
20260504044604 9 202 12.9 19.3 0.00 0.00 0.00 52 1012.0
20260504044505 9 192 12.9 20.9 0.00 0.00 0.00 52 1011.8
20260504044405 9 191 12.9 20.9 0.00 0.00 0.00 52 1011.8
20260504044304 9 192 12.9 20.9 0.00 0.00 0.00 52 1011.8
20260504044204 9 192 12.9 20.9 0.00 0.00 0.00 52 1011.7
20260504044104 9 193 12.9 20.9 0.00 0.00 0.00 52 1011.8
20260504044005 9 193 12.9 20.9 0.00 0.00 0.00 51 1011.8
20260504043904 9 193 12.9 20.9 0.00 0.00 0.00 51 1011.8
20260504043805 9 195 12.9 20.9 0.00 0.00 0.00 51 1011.7
20260504043705 9 197 12.9 20.9 0.00 0.00 0.00 51 1011.8
20260504043605 9 196 12.9 20.9 0.00 0.00 0.00 51 1011.7
20260504043504 9 198 12.9 20.9 0.00 0.00 0.00 51 1011.8
20260504043405 10 200 12.9 20.9 0.00 0.00 0.00 51 1011.8
20260504043304 10 200 12.9 19.3 0.00 0.00 0.00 51 1011.8
20260504043204 9 202 12.9 20.9 0.00 0.00 0.00 51 1011.8
20260504043113 9 188 11.3 20.9 0.00 0.00 0.00 50 1012.0
20260504043104 10 202 12.9 20.9 0.00 0.00 0.00 50 1011.8
20260504043005 10 202 12.9 20.9 0.00 0.00 0.00 50 1011.8
20260504042904 10 202 12.9 20.9 0.00 0.00 0.00 50 1011.8
20260504042804 10 202 12.9 20.9 0.00 0.00 0.00 50 1011.8
20260504042704 10 202 12.9 20.9 0.00 0.00 0.00 50 1011.8
20260504042605 10 203 12.9 22.5 0.00 0.00 0.00 50 1011.8
20260504042505 10 202 12.9 22.5 0.00 0.00 0.00 50 1011.8
20260504042404 10 203 12.9 22.5 0.00 0.00 0.00 50 1011.8
20260504042305 10 206 12.9 24.1 0.00 0.00 0.00 50 1011.8
20260504042205 10 205 12.9 24.1 0.00 0.00 0.00 50 1011.7
20260504041617 9 205 12.9 24.1 0.00 0.00 0.00 50 1012.0
20260504040504 10 201 11.3 20.9 0.00 0.00 0.00 49 1011.6
20260504040404 10 200 11.3 20.9 0.00 0.00 0.00 49 1011.7
20260504040305 10 199 12.9 20.9 0.00 0.00 0.00 49 1011.6
20260504040204 10 197 12.9 20.9 0.00 0.00 0.00 49 1011.7
20260504040111 9 176 11.3 20.9 0.00 0.00 0.00 49 1011.9
20260504040104 10 196 12.9 20.9 0.00 0.00 0.00 49 1011.6
20260504040005 10 195 11.3 20.9 0.00 0.00 0.00 49 1011.7
20260504035905 10 195 11.3 20.9 0.00 0.00 0.00 49 1011.6
20260504035804 10 194 11.3 19.3 0.00 0.00 0.00 49 1011.7
20260504035704 10 194 11.3 19.3 0.00 0.00 0.00 49 1011.6
20260504035604 10 193 11.3 19.3 0.00 0.00 0.00 49 1011.6
20260504035504 10 192 11.3 19.3 0.00 0.00 0.00 49 1011.6
20260504035405 10 192 11.3 19.3 0.00 0.00 0.00 49 1011.6
20260504035305 10 191 11.3 19.3 0.00 0.00 0.00 49 1011.6
20260504035204 10 191 11.3 19.3 0.00 0.00 0.00 49 1011.6
20260504035105 10 190 11.3 20.9 0.00 0.00 0.00 49 1011.5
20260504035005 10 191 11.3 20.9 0.00 0.00 0.00 48 1011.6
20260504034905 10 191 11.3 20.9 0.00 0.00 0.00 48 1011.5
20260504034805 10 192 11.3 20.9 0.00 0.00 0.00 48 1011.5
20260504034704 10 190 11.3 20.9 0.00 0.00 0.00 48 1011.5
20260504034633 10 189 11.3 20.9 0.00 0.00 0.00 48 1011.8
20260504034605 10 189 11.3 20.9 0.00 0.00 0.00 48 1011.6
20260504034505 10 189 11.3 20.9 0.00 0.00 0.00 48 1011.5
20260504034404 10 189 11.3 20.9 0.00 0.00 0.00 48 1011.5
20260504034304 10 190 12.9 20.9 0.00 0.00 0.00 48 1011.5
20260504034205 10 192 12.9 20.9 0.00 0.00 0.00 48 1011.5
20260504034104 10 195 12.9 20.9 0.00 0.00 0.00 48 1011.5
20260504034004 10 196 12.9 20.9 0.00 0.00 0.00 48 1011.5
20260504033905 10 197 11.3 20.9 0.00 0.00 0.00 48 1011.4
20260504033804 10 199 11.3 20.9 0.00 0.00 0.00 48 1011.5
20260504033704 10 202 11.3 20.9 0.00 0.00 0.00 47 1011.5
20260504033605 10 207 9.7 20.9 0.00 0.00 0.00 47 1011.5
20260504033504 10 211 9.7 20.9 0.00 0.00 0.00 47 1011.5
20260504033404 10 214 9.7 20.9 0.00 0.00 0.00 47 1011.5
20260504033105 10 213 9.7 17.7 0.00 0.00 0.00 47 1011.8
20260504032805 10 216 8.0 17.7 0.00 0.00 0.00 47 1011.4
20260504032704 10 216 8.0 17.7 0.00 0.00 0.00 47 1011.5
20260504032604 10 215 8.0 17.7 0.00 0.00 0.00 47 1011.4
20260504032505 10 216 8.0 17.7 0.00 0.00 0.00 47 1011.5
20260504032404 10 215 8.0 17.7 0.00 0.00 0.00 47 1011.5
20260504032304 10 214 6.4 17.7 0.00 0.00 0.00 47 1011.5
20260504032205 10 214 8.0 17.7 0.00 0.00 0.00 47 1011.5
20260504032104 10 213 6.4 17.7 0.00 0.00 0.00 47 1011.5
20260504032005 10 213 6.4 14.5 0.00 0.00 0.00 48 1011.5
20260504031904 10 213 6.4 14.5 0.00 0.00 0.00 49 1011.5
20260504031804 10 214 6.4 14.5 0.00 0.00 0.00 48 1011.5
20260504031705 10 213 6.4 14.5 0.00 0.00 0.00 47 1011.5
20260504031611 10 210 6.4 14.5 0.00 0.00 0.00 48 1011.8
20260504031604 10 216 6.4 14.5 0.00 0.00 0.00 48 1011.6
20260504031504 10 215 6.4 14.5 0.00 0.00 0.00 48 1011.5
20260504031405 10 216 6.4 14.5 0.00 0.00 0.00 48 1011.5
20260504031305 10 216 6.4 14.5 0.00 0.00 0.00 48 1011.5
20260504031204 10 216 6.4 14.5 0.00 0.00 0.00 48 1011.5
20260504031105 10 218 6.4 19.3 0.00 0.00 0.00 47 1011.5
20260504031004 10 218 8.0 19.3 0.00 0.00 0.00 48 1011.5
20260504030904 11 220 8.0 19.3 0.00 0.00 0.00 47 1011.5
20260504030805 11 221 8.0 19.3 0.00 0.00 0.00 47 1011.6
20260504030705 11 222 8.0 19.3 0.00 0.00 0.00 47 1011.6
20260504030604 11 224 8.0 19.3 0.00 0.00 0.00 47 1011.5
20260504030505 11 224 8.0 19.3 0.00 0.00 0.00 47 1011.6
20260504030405 11 224 8.0 19.3 0.00 0.00 0.00 47 1011.6
20260504030304 11 225 8.0 19.3 0.00 0.00 0.00 47 1011.6
20260504030205 11 226 8.0 19.3 0.00 0.00 0.00 46 1011.6
20260504030119 10 209 6.4 16.1 0.00 0.00 0.00 46 1011.8
20260504030105 11 226 8.0 16.1 0.00 0.00 0.00 47 1011.6
20260504030004 11 226 8.0 16.1 0.00 0.00 0.00 47 1011.6
20260504025904 11 227 8.0 16.1 0.00 0.00 0.00 47 1011.5
20260504025805 11 227 8.0 16.1 0.00 0.00 0.00 47 1011.6
20260504025704 11 226 8.0 16.1 0.00 0.00 0.00 47 1011.5
20260504025604 11 226 8.0 20.9 0.00 0.00 0.00 46 1011.5
20260504025505 11 226 9.7 20.9 0.00 0.00 0.00 47 1011.5
20260504025404 11 226 9.7 20.9 0.00 0.00 0.00 47 1011.5
20260504025304 11 227 9.7 20.9 0.00 0.00 0.00 47 1011.5
20260504025205 11 227 9.7 20.9 0.00 0.00 0.00 47 1011.5
20260504025105 11 227 9.7 20.9 0.00 0.00 0.00 46 1011.5
20260504025005 11 227 9.7 20.9 0.00 0.00 0.00 46 1011.5
20260504024905 11 227 9.7 20.9 0.00 0.00 0.00 46 1011.5
20260504024804 11 228 9.7 20.9 0.00 0.00 0.00 46 1011.5
20260504024704 11 229 9.7 20.9 0.00 0.00 0.00 47 1011.5
20260504024609 10 203 8.0 17.7 0.00 0.00 0.00 46 1011.8
20260504024604 11 227 9.7 19.3 0.00 0.00 0.00 47 1011.5
20260504024504 11 228 9.7 19.3 0.00 0.00 0.00 47 1011.5
20260504024405 11 227 9.7 19.3 0.00 0.00 0.00 47 1011.5
20260504024304 11 226 8.0 17.7 0.00 0.00 0.00 47 1011.5
20260504024204 11 226 8.0 17.7 0.00 0.00 0.00 46 1011.5
20260504024105 11 225 8.0 17.7 0.00 0.00 0.00 47 1011.5
20260504024005 11 225 9.7 17.7 0.00 0.00 0.00 47 1011.5
20260504023904 11 224 9.7 17.7 0.00 0.00 0.00 47 1011.5
20260504023804 11 223 9.7 17.7 0.00 0.00 0.00 47 1011.5
20260504023704 11 222 9.7 24.1 0.00 0.00 0.00 47 1011.5
20260504023604 11 222 9.7 24.1 0.00 0.00 0.00 47 1011.5
20260504023505 11 222 9.7 24.1 0.00 0.00 0.00 47 1011.5
20260504023404 11 223 9.7 24.1 0.00 0.00 0.00 46 1011.5
20260504023304 11 222 9.7 24.1 0.00 0.00 0.00 46 1011.5
20260504023205 11 223 9.7 24.1 0.00 0.00 0.00 47 1011.5
20260504023118 11 244 8.0 22.5 0.00 0.00 0.00 47 1011.8
20260504023104 11 223 9.7 24.1 0.00 0.00 0.00 47 1011.5
20260504023004 11 222 9.7 24.1 0.00 0.00 0.00 47 1011.6
20260504022905 11 222 9.7 24.1 0.00 0.00 0.00 47 1011.5
20260504022804 11 222 8.0 24.1 0.00 0.00 0.00 47 1011.5
20260504022704 11 223 8.0 17.7 0.00 0.00 0.00 47 1011.5
20260504022605 11 222 8.0 17.7 0.00 0.00 0.00 47 1011.5
20260504022505 11 221 8.0 19.3 0.00 0.00 0.00 47 1011.5
20260504022404 11 221 8.0 19.3 0.00 0.00 0.00 47 1011.4
20260504022305 11 222 8.0 19.3 0.00 0.00 0.00 47 1011.5
20260504022205 11 220 8.0 19.3 0.00 0.00 0.00 47 1011.5
20260504022104 11 220 8.0 19.3 0.00 0.00 0.00 46 1011.4
20260504022004 11 219 8.0 19.3 0.00 0.00 0.00 47 1011.4
20260504021905 11 219 8.0 19.3 0.00 0.00 0.00 47 1011.4
20260504021805 11 220 8.0 19.3 0.00 0.00 0.00 47 1011.4
20260504021704 11 219 8.0 19.3 0.00 0.00 0.00 47 1011.5
20260504021604 11 221 8.0 19.3 0.00 0.00 0.00 47 1011.5
20260504021602 11 248 8.0 19.3 0.00 0.00 0.00 47 1011.7
20260504021505 11 222 9.7 22.5 0.00 0.00 0.00 47 1011.5
20260504021404 11 224 9.7 22.5 0.00 0.00 0.00 47 1011.5
20260504021304 11 226 9.7 22.5 0.00 0.00 0.00 48 1011.5
20260504021205 11 226 9.7 22.5 0.00 0.00 0.00 47 1011.4
20260504021104 11 229 9.7 22.5 0.00 0.00 0.00 47 1011.5
20260504021004 11 230 9.7 22.5 0.00 0.00 0.00 47 1011.5
20260504020905 11 231 9.7 22.5 0.00 0.00 0.00 45 1011.4
20260504020805 11 231 9.7 22.5 0.00 0.00 0.00 46 1011.4
20260504020704 11 231 9.7 22.5 0.00 0.00 0.00 46 1011.4
20260504020604 11 231 9.7 22.5 0.00 0.00 0.00 46 1011.4
20260504020505 11 231 9.7 20.9 0.00 0.00 0.00 46 1011.4
20260504020404 11 230 9.7 20.9 0.00 0.00 0.00 46 1011.5
20260504020305 11 231 9.7 20.9 0.00 0.00 0.00 47 1011.5
20260504020204 11 232 8.0 20.9 0.00 0.00 0.00 48 1011.5
20260504020133 10 204 9.7 20.9 0.00 0.00 0.00 48 1011.7
20260504020104 11 231 8.0 20.9 0.00 0.00 0.00 48 1011.4
20260504015904 11 232 9.7 20.9 0.00 0.00 0.00 48 1011.4
20260504015805 11 232 9.7 20.9 0.00 0.00 0.00 47 1011.4
20260504015104 11 236 9.7 20.9 0.00 0.00 0.00 48 1011.5
20260504015005 11 236 9.7 20.9 0.00 0.00 0.00 48 1011.4
20260504014904 11 237 9.7 20.9 0.00 0.00 0.00 47 1011.4
20260504014805 11 238 9.7 20.9 0.00 0.00 0.00 48 1011.4
20260504014705 11 237 9.7 20.9 0.00 0.00 0.00 48 1011.4
20260504014604 11 236 9.7 20.9 0.00 0.00 0.00 48 1011.4
20260504014512 10 234 9.7 20.9 0.00 0.00 0.00 49 1011.6
20260504014504 11 234 9.7 20.9 0.00 0.00 0.00 49 1011.4
20260504014405 11 233 9.7 20.9 0.00 0.00 0.00 50 1011.3
20260504014304 11 233 9.7 20.9 0.00 0.00 0.00 49 1011.3
20260504014204 11 234 9.7 20.9 0.00 0.00 0.00 49 1011.3
20260504014105 11 235 9.7 20.9 0.00 0.00 0.00 49 1011.3
20260504014004 11 233 9.7 22.5 0.00 0.00 0.00 50 1011.3
20260504013904 11 232 9.7 22.5 0.00 0.00 0.00 50 1011.3
20260504013805 11 233 9.7 22.5 0.00 0.00 0.00 51 1011.3
20260504013704 11 233 9.7 22.5 0.00 0.00 0.00 50 1011.3
20260504013604 11 234 9.7 22.5 0.00 0.00 0.00 49 1011.2
20260504013504 11 235 9.7 22.5 0.00 0.00 0.00 50 1011.3
20260504013405 10 235 9.7 22.5 0.00 0.00 0.00 50 1011.2
20260504013304 10 234 9.7 22.5 0.00 0.00 0.00 50 1011.2
20260504013204 10 233 9.7 22.5 0.00 0.00 0.00 50 1011.2
20260504013140 10 219 9.7 20.9 0.00 0.00 0.00 50 1011.4
20260504013105 10 231 8.0 22.5 0.00 0.00 0.00 48 1011.1
20260504013005 10 231 8.0 17.7 0.00 0.00 0.00 49 1011.1
20260504012904 10 229 8.0 17.7 0.00 0.00 0.00 49 1011.1
20260504012804 10 226 8.0 17.7 0.00 0.00 0.00 49 1011.2
20260504012704 10 224 6.4 17.7 0.00 0.00 0.00 52 1011.2
20260504012604 10 223 6.4 17.7 0.00 0.00 0.00 52 1011.1
20260504012505 10 220 6.4 17.7 0.00 0.00 0.00 52 1011.1
20260504012404 10 217 6.4 17.7 0.00 0.00 0.00 53 1011.1
20260504012304 10 216 6.4 17.7 0.00 0.00 0.00 52 1011.1
20260504012204 10 214 6.4 17.7 0.00 0.00 0.00 52 1011.1
20260504012104 10 215 6.4 17.7 0.00 0.00 0.00 52 1011.1
20260504012005 10 216 6.4 17.7 0.00 0.00 0.00 52 1011.1
20260504011509 10 167 6.4 12.9 0.00 0.00 0.00 53 1011.3
20260504011405 10 216 6.4 12.9 0.00 0.00 0.00 53 1011.1
20260504011304 10 218 6.4 12.9 0.00 0.00 0.00 53 1011.1
20260504011204 10 219 6.4 12.9 0.00 0.00 0.00 53 1011.1
20260504011105 10 217 4.8 12.9 0.00 0.00 0.00 53 1011.1
20260504011005 10 216 4.8 12.9 0.00 0.00 0.00 53 1011.1
20260504010904 10 217 4.8 12.9 0.00 0.00 0.00 54 1011.0
20260504010804 10 217 4.8 12.9 0.00 0.00 0.00 53 1011.0
20260504010705 10 215 4.8 12.9 0.00 0.00 0.00 53 1011.0
20260504010604 11 216 4.8 12.9 0.00 0.00 0.00 54 1010.9
20260504010505 11 215 4.8 12.9 0.00 0.00 0.00 54 1010.9
20260504010404 11 214 4.8 12.9 0.00 0.00 0.00 54 1010.9
20260504010304 11 214 4.8 12.9 0.00 0.00 0.00 54 1010.9
20260504010204 11 215 4.8 12.9 0.00 0.00 0.00 54 1010.9
20260504010114 10 206 4.8 12.9 0.00 0.00 0.00 54 1011.2
20260504010104 11 216 4.8 9.7 0.00 0.00 0.00 54 1010.9
20260504010005 11 217 4.8 9.7 0.00 0.00 0.00 54 1010.9
20260504005904 11 217 4.8 9.7 0.00 0.00 0.00 54 1010.9
20260504005804 11 217 4.8 9.7 0.00 0.00 0.00 55 1010.8
20260504005704 11 218 4.8 9.7 0.00 0.00 0.00 56 1010.8
20260504005605 11 219 4.8 9.7 0.00 0.00 0.00 56 1010.8
20260504005505 11 220 4.8 8.0 0.00 0.00 0.00 56 1010.7
20260504005404 11 224 4.8 8.0 0.00 0.00 0.00 56 1010.7
20260504005305 11 227 4.8 9.7 0.00 0.00 0.00 57 1010.7
20260504005204 11 227 4.8 9.7 0.00 0.00 0.00 57 1010.7
20260504005104 11 231 4.8 11.3 0.00 0.00 0.00 57 1010.7
20260504005004 11 236 6.4 12.9 0.00 0.00 0.00 56 1010.7
20260504004905 11 243 6.4 14.5 0.00 0.00 0.00 57 1010.7
20260504004804 11 248 6.4 14.5 0.00 0.00 0.00 57 1010.7
20260504004704 11 251 8.0 16.1 0.00 0.00 0.00 57 1010.7
20260504004605 11 253 8.0 16.1 0.00 0.00 0.00 56 1010.7
20260504004511 10 233 3.2 16.1 0.00 0.00 0.00 55 1010.9
20260504004504 11 255 8.0 16.1 0.00 0.00 0.00 55 1010.7
20260504004404 11 256 8.0 16.1 0.00 0.00 0.00 53 1010.6
20260504004305 11 256 9.7 16.1 0.00 0.00 0.00 53 1010.6
20260504004204 11 257 8.0 16.1 0.00 0.00 0.00 53 1010.6
20260504004104 11 257 8.0 16.1 0.00 0.00 0.00 53 1010.6
20260504004005 11 257 8.0 16.1 0.00 0.00 0.00 53 1010.6
20260504003904 11 255 8.0 16.1 0.00 0.00 0.00 54 1010.6
20260504003804 11 253 8.0 16.1 0.00 0.00 0.00 54 1010.6
20260504003204 11 247 8.0 11.3 0.00 0.00 0.00 54 1010.6
20260504003112 10 251 6.4 11.3 0.00 0.00 0.00 54 1010.8
20260504003105 11 246 8.0 11.3 0.00 0.00 0.00 54 1010.5
20260504003004 11 246 6.4 11.3 0.00 0.00 0.00 54 1010.5
20260504002904 11 243 6.4 11.3 0.00 0.00 0.00 54 1010.5
20260504002804 11 240 6.4 11.3 0.00 0.00 0.00 54 1010.5
20260504002704 11 239 6.4 11.3 0.00 0.00 0.00 54 1010.5
20260504002604 11 237 6.4 11.3 0.00 0.00 0.00 54 1010.5
20260504002505 11 234 6.4 11.3 0.00 0.00 0.00 55 1010.4
20260504002404 11 231 4.8 11.3 0.00 0.00 0.00 55 1010.4
20260504002304 11 228 4.8 11.3 0.00 0.00 0.00 56 1010.4
20260504002204 11 225 4.8 11.3 0.00 0.00 0.00 57 1010.4
20260504002105 11 223 4.8 11.3 0.00 0.00 0.00 57 1010.4
20260504002004 11 224 4.8 11.3 0.00 0.00 0.00 57 1010.4
20260504001904 11 226 4.8 11.3 0.00 0.00 0.00 57 1010.3
20260504001804 11 227 3.2 11.3 0.00 0.00 0.00 58 1010.3
20260504001705 11 227 3.2 8.0 0.00 0.00 0.00 58 1010.3
20260504001604 11 229 3.2 8.0 0.00 0.00 0.00 58 1010.3
20260504001515 11 217 3.2 8.0 0.00 0.00 0.00 58 1010.6
20260504001504 11 231 3.2 8.0 0.00 0.00 0.00 58 1010.3
20260504001405 11 234 3.2 8.0 0.00 0.00 0.00 58 1010.3
20260504001304 11 237 3.2 8.0 0.00 0.00 0.00 58 1010.3
20260504001204 11 241 3.2 6.4 0.00 0.00 0.00 58 1010.2
20260504001104 11 245 3.2 6.4 0.00 0.00 0.00 58 1010.2
20260504001004 11 247 3.2 8.0 0.00 0.00 0.00 58 1010.2
20260504000904 11 246 3.2 11.3 0.00 0.00 0.00 57 1010.2
20260504000804 11 246 4.8 11.3 0.00 0.00 0.00 57 1010.2
20260504000704 11 246 4.8 11.3 0.00 0.00 0.00 56 1010.2
20260504000604 11 245 4.8 11.3 0.00 0.00 0.00 56 1010.2
20260504000505 11 244 6.4 11.3 0.00 0.00 0.00 56 1010.1
20260504000405 11 244 6.4 12.9 0.00 0.00 0.00 55 1010.1
20260504000304 11 245 8.0 12.9 0.00 0.00 0.00 54 1010.1
20260504000205 11 246 8.0 14.5 0.00 0.00 0.00 53 1010.2
20260504000111 11 246 4.8 12.9 0.00 0.00 0.00 53 1010.4
20260504000105 11 246 8.0 14.5 0.00 0.00 0.00 53 1010.1
20260503235404 11 250 8.0 14.5 0.00 0.00 0.00 53 1010.0
20260503235305 11 250 8.0 14.5 0.00 0.00 0.00 54 1010.0
20260503235205 11 249 8.0 14.5 0.00 0.00 0.00 54 1010.0
20260503235104 11 250 6.4 14.5 0.00 0.00 0.00 54 1010.0
20260503235004 11 250 8.0 14.5 0.00 0.00 0.00 53 1010.0
20260503234905 11 252 8.0 14.5 0.00 0.00 0.00 53 1009.9
20260503234804 11 254 8.0 14.5 0.00 0.00 0.00 54 1009.9
20260503234704 11 257 8.0 14.5 0.00 0.00 0.00 54 1009.9
20260503234605 11 259 8.0 12.9 0.00 0.00 0.00 54 1009.9
20260503234506 11 256 8.0 12.9 0.00 0.00 0.00 55 1010.1
20260503234504 11 262 8.0 12.9 0.00 0.00 0.00 55 1009.9
20260503234404 11 266 8.0 12.9 0.00 0.00 0.00 55 1009.9
20260503234305 11 269 8.0 11.3 0.00 0.00 0.00 55 1009.8
20260503234204 12 270 8.0 11.3 0.00 0.00 0.00 55 1009.8
20260503234104 12 271 8.0 11.3 0.00 0.00 0.00 55 1009.8
20260503234004 12 271 8.0 11.3 0.00 0.00 0.00 56 1009.8
20260503233905 12 272 8.0 11.3 0.00 0.00 0.00 56 1009.8
20260503233804 12 272 8.0 12.9 0.00 0.00 0.00 56 1009.7
20260503233704 12 272 8.0 12.9 0.00 0.00 0.00 56 1009.8
20260503233604 12 271 8.0 12.9 0.00 0.00 0.00 57 1009.7
20260503233504 12 270 8.0 12.9 0.00 0.00 0.00 57 1009.7
20260503233404 12 270 8.0 12.9 0.00 0.00 0.00 56 1009.8
20260503233305 12 270 8.0 12.9 0.00 0.00 0.00 56 1009.8
20260503233204 12 270 8.0 12.9 0.00 0.00 0.00 56 1009.8
20260503233111 11 275 6.4 12.9 0.00 0.00 0.00 57 1010.0
20260503233104 12 270 8.0 12.9 0.00 0.00 0.00 57 1009.8
20260503233005 12 270 8.0 12.9 0.00 0.00 0.00 58 1009.8
20260503232904 12 270 8.0 12.9 0.00 0.00 0.00 58 1009.8
20260503232804 12 270 8.0 12.9 0.00 0.00 0.00 58 1009.8
20260503232704 12 271 8.0 12.9 0.00 0.00 0.00 58 1009.8
20260503232605 12 272 8.0 12.9 0.00 0.00 0.00 58 1009.8
20260503232504 12 272 8.0 12.9 0.00 0.00 0.00 58 1009.8
20260503232404 12 271 8.0 12.9 0.00 0.00 0.00 58 1009.8
20260503232305 12 271 6.4 12.9 0.00 0.00 0.00 58 1009.7
20260503232204 12 271 6.4 12.9 0.00 0.00 0.00 59 1009.8
20260503232104 12 272 6.4 12.9 0.00 0.00 0.00 59 1009.7
20260503232005 12 272 6.4 12.9 0.00 0.00 0.00 59 1009.7
20260503231904 12 271 6.4 12.9 0.00 0.00 0.00 59 1009.8